Flag for Canada Weather past 2 weeks in Rankin Inlet, Nunavut, Canada

Now
27 °F

Light snow. Ice fog.


Feels Like: 18 °F
Forecast: N/A
Wind: 8 mph from Northwest

Location: Rankin Inlet

Current Time: Apr 25, 2015 at 3:43:29 PM

Latest Report: Apr 25, 2015 at 3:00 PM


Visibility: 0 mi

Pressure: 30.30 "Hg

Humidity: 86%

Dew point: 23 °F

Location of Rankin InletLocation

Historic Weather in Rankin Inlet — Graph

°F

Rankin Inlet temperature yesterday

Maximum temperature yesterday: 32 °F (at 2:00 PM)
Minimum temperature yesterday: 19 °F (at 2:00 AM)
Average temperature yesterday: 26 °F

Past Weeks' High & Low Weather Summary

 TemperatureHumidityPressure
High32 °F (Apr 24, 2:00 PM)100% (Apr 16, 9:00 PM)30.37 "Hg (Apr 16, 9:00 PM)
Low-15 °F (Apr 14, 4:00 AM)55% (Apr 14, 3:00 PM)29.05 "Hg (Apr 12, 1:00 PM)
Average9 °F81%29.98 "Hg
* Reported Apr 10 2:00 PM — Apr 25 2:00 PM, Rankin Inlet, Weather by CustomWeather, © 2015

Note: Actual official high and low records may vary slightly from our data, if they occured in-between our weather recording intervals... More about our weather records

Advertising

Rankin Inlet weather history for previous 24 hours

 ConditionsComfort  
Time TempWeatherWind HumidityBarometerVisibility
2:00 PM
Sat, Apr 25
27 °FLight snow. Ice fog.8 mph86%30.30 "Hg1 mi
1:00 PM28 °FLight snow. Ice fog.6 mph86%30.29 "Hg1 mi
12:00 PM28 °FLight snow. Ice fog.8 mph93%30.29 "Hg1 mi
11:00 AM28 °FLight snow. Ice fog.10 mph93%30.29 "Hg1 mi
10:00 AM28 °FLight snow. Ice fog.8 mph93%30.28 "Hg1 mi
9:00 AM27 °FLight snow. Ice fog.8 mph100%30.28 "Hg2 mi
8:00 AM27 °FLight snow. Ice fog.10 mph93%30.27 "Hg2 mi
7:00 AM27 °FLight snow. Ice fog.15 mph93%30.27 "Hg2 mi
6:00 AM27 °FLight snow. Low clouds.13 mph93%30.26 "Hg3 mi
5:00 AM27 °FLight snow. Low clouds.15 mph93%30.25 "Hg3 mi
4:00 AM27 °FLight snow. Low clouds.15 mph93%30.25 "Hg6 mi
3:00 AM27 °FLight snow. Low clouds.14 mph93%30.24 "Hg6 mi
2:00 AM27 °FLight snow. Mostly cloudy.18 mph93%30.23 "Hg10 mi
1:00 AM27 °FLight snow. Mostly cloudy.14 mph93%30.23 "Hg10 mi
12:00 AM27 °FLight snow. Mostly cloudy.18 mph93%30.22 "Hg6 mi
11:00 PM
Fri, Apr 24
27 °FLight snow. Ice fog.16 mph93%30.22 "Hg4 mi
10:00 PM27 °FLight snow. Ice fog.16 mph100%30.22 "Hg1 mi
9:00 PM28 °FIce fog.18 mph93%30.21 "Hg1 mi
8:00 PM28 °FIce fog.21 mph93%30.21 "Hg1 mi
6:00 PM30 °FIce fog.20 mph93%30.20 "Hg1 mi
5:00 PM30 °FIce fog.17 mph100%30.19 "Hg1 mi
4:00 PM32 °FLow clouds.15 mph87%30.19 "Hg10 mi
3:00 PM32 °FLow clouds.18 mph87%30.19 "Hg8 mi
Weather by CustomWeather, © 2015

See weather overviewHow to use our weather pages